CZ-4C R/B, 43264

Orbit data source: Space-Track

CZ-4C R/B, 43264 is space debris in SSO originally from a launch on Sat, 31 Mar 2018 UTC launched from the Taiyaun Space Center, China (TSC). Debris objects in space refer to the collection of defunct objects orbiting the Earth. Examples of debris include non-operational satellites, rocket bodies, and fragments generated from explosions, collisions, or faulty payload assembly.

Loading next visibility...
CZ-4C R/B details
Identifier
43264, 2018-031F
Orbit
SSO
Last TLE update20 hours ago
Origin
Flag of CNCNSA (CN / PRC)
ManufacturerSAST
MissionSpacecraft
Bus & MotorCZ-4 STAGE 3, Unknown motor
Mass~1,000 kg wet, ~1,000 kg dry
Launch date (UTC)
2018-03-31 (7 years ago)
Launch vehicleUnknown
Launch site
Taiyaun Space Center, China (TSC)
Object type
Payload
Rocket body
Debris
Shape & HBRCyl, 2.9 m
Radar Cross Section7.676 m², Large (>1 m²)

Expand to show TLE details & history

TLE from 20 hours ago
0 CZ-4C R/B
1 43264U 18031F   24360.64619482  .00010882  00000-0  53337-3 0  9990
2 43264  98.1784 228.5076 0095674  83.7554 277.4563 15.14320861369486
Epoch: 2024-12-25T15:30Z
Definitive object data (Epoch: 2024-12-25T15:30:31.232Z)
Latitude-0.00009°
Longitude-98.75948°
Altitude518.153 km
Speed7.609 km/s
True Right ascension15h 14m 01s
True Declination0° 00' 00"
Sunlit
Object was in daylight at TLE epoch
Visualization TLE readout
Latitude67.20442°
Longitude101.99498°
Altitude477.528 km
Speed7.665 km/s
Apparent Right ascension00h 19m 54s
Apparent Declination22° 18' 36"
Sunlit
Object is in full shadow
Visualization observer readout
Local Sidereal Time10:22:36
Azimuth330.736° NNW
Elevation-22.026°
Doppler factor1
Orbital elements
Apogee altitude586.046 km
Perigee altitude454.051 km
Semi-major axis6,898.186 km
Eccentricity0.0095674
Inclination98.1784°
RAAN228.5076°
Arg. of periapsis83.7554°
True anomaly276.3676°
Mean anomaly277.4563°
Eccentric anomaly276.91211°
Mean motion3.78827 °/min
BSTAR0.00053337
Orbital period95.03 mins
Loading maneuver chart data...
Loading historical data...
Loading historical data...
Loading historical data...
Loading historical data...
Loading historical data...
Loading historical data...
Loading historical data...

CZ-4C R/B Visibility forecast

Observer location: undefined°, undefined

Span
Click to sort rows by Start time (UTC) header in descending order
Start Az.
Max El. time (UTC)
Max El. Az.
Max El.
End time (UTC)
End Az.
6 mins2024-12-26 15:25:19.266Z165.636° S2024-12-26 15:28:19.266Z104.429° ESE44.993°2024-12-26 15:31:19.266Z347.374° N
5 mins2024-12-27 04:33:19.266Z358.684° N2024-12-27 04:35:19.266Z268.935° W41.392°2024-12-27 04:38:19.266Z205.297° SW
|